EDT,Max TemperatureF,Mean TemperatureF,Min TemperatureF,Max Dew PointF,MeanDew PointF,Min DewpointF,Max Humidity, Mean Humidity, Min Humidity, Max Sea Level PressureIn, Mean Sea Level PressureIn, Min Sea Level PressureIn, Max VisibilityMiles, Mean VisibilityMiles, Min VisibilityMiles, Max Wind SpeedMPH, Mean Wind SpeedMPH, Max Gust SpeedMPH,PrecipitationIn, CloudCover, Events, WindDirDegrees
2011-10-1,52,49,45,40,36,31,76,63,50,30.10,30.00,29.88,10,10,10,17,9,23,T,7,,287
2011-10-2,60,52,43,43,35,28,82,57,31,30.11,30.07,30.02,10,9,4,16,7,26,0.01,5,Rain,295
2011-10-3,68,52,35,43,37,32,92,63,34,30.19,30.12,30.06,10,10,10,16,4,23,T,5,Rain,285
2011-10-4,74,58,41,48,43,39,93,63,33,30.30,30.23,30.18,10,9,0,10,2,15,0.00,2,,288
2011-10-5,81,62,43,51,44,41,100,63,25,30.32,30.25,30.17,10,7,0,9,1,13,0.00,1,Fog,180
2011-10-6,81,63,44,52,47,42,92,60,28,30.30,30.26,30.21,10,10,10,8,1,13,0.00,0,,235
2011-10-7,83,65,46,53,49,45,93,62,31,30.39,30.33,30.27,10,8,4,12,1,18,0.00,0,Fog,124
2011-10-8,81,63,44,49,43,37,93,57,21,30.44,30.37,30.30,10,10,10,12,2,16,0.00,0,,82
2011-10-9,77,63,49,50,47,44,77,55,33,30.38,30.31,30.24,10,10,10,16,4,22,0.00,5,,101
2011-10-10,78,66,53,50,47,43,83,58,33,30.25,30.15,30.06,10,10,10,12,3,16,0.00,7,,58
2011-10-11,73,65,56,57,53,48,100,77,53,30.05,29.99,29.93,10,9,5,14,3,21,0.48,8,Rain,64
2011-10-12,65,60,54,56,55,53,100,87,73,29.93,29.85,29.75,10,6,0,8,1,9,0.05,7,Fog-Rain,235
2011-10-13,65,60,54,61,57,53,100,92,84,29.79,29.65,29.53,10,4,0,13,3,18,0.30,8,Fog-Rain-Thunderstorm,235
2011-10-14,70,60,49,56,48,36,93,63,32,29.84,29.70,29.59,10,9,3,29,11,36,0.12,5,Rain,249
2011-10-15,67,55,42,41,36,30,89,58,26,30.07,29.96,29.84,10,10,10,22,9,29,0.00,0,,250
2011-10-16,76,57,37,45,39,36,92,59,25,30.16,30.05,29.95,10,10,10,23,4,31,0.00,0,,239
2011-10-17,80,63,45,54,49,43,93,66,39,29.96,29.89,29.82,10,10,10,18,3,25,0.00,2,,265
2011-10-18,83,66,48,55,50,46,100,64,28,29.86,29.71,29.53,10,8,3,14,3,21,0.00,4,,140
2011-10-19,65,55,44,58,49,41,93,78,63,29.55,29.43,29.30,10,6,2,25,11,30,0.81,7,Rain,227
2011-10-20,47,45,42,41,39,37,89,80,71,29.98,29.75,29.50,10,10,8,28,16,38,0.03,8,Rain,236
2011-10-21,58,47,35,39,36,33,92,68,43,30.14,30.08,30.00,10,10,10,14,4,18,0.00,3,,254
2011-10-22,62,47,31,40,34,30,100,68,36,30.21,30.15,30.08,10,6,0,9,1,10,0.00,3,Fog,226
2011-10-23,66,49,31,41,36,31,96,63,29,30.15,30.10,30.04,10,10,8,7,1,9,0.00,2,Fog,327
2011-10-24,69,55,40,44,42,38,92,64,36,30.15,30.10,30.05,10,10,10,18,4,22,T,3,,242
2011-10-25,75,57,38,47,39,27,100,59,17,30.27,30.17,30.08,10,10,6,5,0,8,0.00,1,,160
2011-10-26,74,57,39,48,44,37,96,67,38,30.09,30.00,29.89,10,10,8,21,3,26,0.00,2,,236
2011-10-27,66,56,45,55,49,44,93,75,56,30.04,29.90,29.79,10,9,2,21,5,24,0.15,6,Rain,303
2011-10-28,48,45,42,46,42,39,100,90,80,30.06,29.99,29.93,10,7,2,10,5,17,0.75,8,Rain,38
2011-10-29,51,41,30,40,35,27,93,66,39,30.16,30.05,29.96,10,8,3,18,5,23,0.14,6,Rain,306
2011-10-30,58,43,27,36,29,27,100,66,32,30.32,30.22,30.16,10,6,0,9,1,12,0.00,3,Fog,190
2011-10-31,53,43,33,36,33,30,92,71,50,30.24,30.21,30.17,10,10,9,13,1,17,T,4,,314